When you browse on this site, cookies collect data to enhance your experience and personalize the content and advertising you see.
Visit our Privacy Policy to learn more. By continuing to use the site, you agree to this use of cookies and data.
  • In Latvia
  • List of Countries
  • For 7 days
  • Water Temperature
  • Satellite Maps
  • Weather Map
  • Weather Widgets
  • user-avatar
    Login

    Hourly Weather Innsbruck

    Today, 25 June, Tuesday

    Time Temperature Precipitation Wind Pressure Humidity
    00:00 +11°C° 0 mm 1 mps 602 mmHg 86%
    01:00 +10°C° 0 mm 2 mps 602 mmHg 82%
    02:00 +10°C° 0 mm 2 mps 602 mmHg 81%
    03:00 +10°C° 0 mm 2 mps 602 mmHg 81%
    04:00 +10°C° 0 mm 2 mps 601 mmHg 81%
    05:00 +13°C° 0 mm 1 mps 603 mmHg 77%
    06:00 +15°C° 0 mm 1 mps 604 mmHg 72%
    07:00 +18°C° 0 mm 1 mps 605 mmHg 68%
    08:00 +20°C° 0 mm 1 mps 606 mmHg 58%
    09:00 +23°C° 0 mm 1 mps 607 mmHg 47%
    10:00 +25°C° 0 mm 1 mps 608 mmHg 37%
    11:00 +26°C° 0 mm 1 mps 608 mmHg 34%
    12:00 +27°C° 0 mm 2 mps 609 mmHg 31%
    13:00 +27°C° 0 mm 2 mps 609 mmHg 27%
    14:00 +27°C° 0 mm 2 mps 609 mmHg 29%
    15:00 +27°C° 0 mm 2 mps 609 mmHg 30%
    16:00 +26°C° 0 mm 3 mps 608 mmHg 31%
    17:00 +25°C° 0 mm 2 mps 608 mmHg 43%
    18:00 +23°C° 0 mm 2 mps 607 mmHg 54%
    19:00 +21°C° 0 mm 1 mps 607 mmHg 65%
    20:00 +19°C° 0 mm 1 mps 606 mmHg 69%
    21:00 +16°C° 0 mm 1 mps 605 mmHg 74%
    22:00 +13°C° 0 mm 1 mps 605 mmHg 78%
    23:00 +13°C° 0 mm 1 mps 605 mmHg 75%

    Tomorrow, 26 June, Wednesday

    Time Temperature Precipitation Wind Pressure Humidity
    00:00 +13°C° 0 mm 1 mps 604 mmHg 73%
    01:00 +12°C° 0 mm 1 mps 604 mmHg 71%
    02:00 +12°C° 0 mm 1 mps 604 mmHg 67%
    03:00 +12°C° 0 mm 1 mps 604 mmHg 63%
    04:00 +12°C° 0 mm 1 mps 604 mmHg 59%
    05:00 +14°C° 0 mm 1 mps 605 mmHg 54%
    06:00 +18°C° 0 mm 1 mps 606 mmHg 49%
    07:00 +20°C° 0 mm 1 mps 608 mmHg 44%
    08:00 +22°C° 0 mm 1 mps 608 mmHg 38%
    09:00 +24°C° 0 mm 1 mps 609 mmHg 33%
    10:00 +26°C° 0 mm 1 mps 610 mmHg 27%
    11:00 +27°C° 0 mm 2 mps 610 mmHg 26%
    12:00 +28°C° 0 mm 2 mps 610 mmHg 25%
    13:00 +28°C° 0 mm 2 mps 611 mmHg 23%
    14:00 +28°C° 0 mm 2 mps 610 mmHg 25%
    15:00 +28°C° 0 mm 3 mps 610 mmHg 27%
    16:00 +27°C° 0 mm 3 mps 610 mmHg 29%
    17:00 +25°C° 0 mm 2 mps 609 mmHg 39%
    18:00 +24°C° 0 mm 2 mps 608 mmHg 49%
    19:00 +22°C° 0 mm 1 mps 608 mmHg 60%
    20:00 +20°C° 0 mm 1 mps 607 mmHg 64%
    21:00 +16°C° 0 mm 1 mps 606 mmHg 69%
    22:00 +14°C° 0 mm 1 mps 605 mmHg 73%
    23:00 +14°C° 0 mm 1 mps 605 mmHg 72%

    Day after tomorrow, 27 June, Thursday

    Time Temperature Precipitation Wind Pressure Humidity
    00:00 +13°C° 0 mm 1 mps 605 mmHg 71%
    01:00 +13°C° 0 mm 1 mps 605 mmHg 71%
    02:00 +13°C° 0 mm 1 mps 604 mmHg 70%
    03:00 +13°C° 0 mm 1 mps 604 mmHg 68%
    04:00 +12°C° 0 mm 1 mps 604 mmHg 67%
    05:00 +15°C° 0 mm 1 mps 605 mmHg 62%
    06:00 +18°C° 0 mm 1 mps 606 mmHg 57%
    07:00 +20°C° 0 mm 1 mps 607 mmHg 52%
    08:00 +22°C° 0 mm 1 mps 607 mmHg 45%
    09:00 +24°C° 0 mm 1 mps 608 mmHg 39%
    10:00 +26°C° 0 mm 2 mps 609 mmHg 32%
    11:00 +26°C° 0 mm 2 mps 609 mmHg 32%
    12:00 +26°C° 0 mm 3 mps 609 mmHg 31%
    13:00 +27°C° 0 mm 3 mps 609 mmHg 30%
    14:00 +26°C° 0.1 mm 3 mps 608 mmHg 34%
    15:00 +26°C° 0.1 mm 3 mps 608 mmHg 38%
    16:00 +25°C° 0.1 mm 4 mps 607 mmHg 42%
    17:00 +22°C° 0.1 mm 3 mps 606 mmHg 52%
    18:00 +21°C° 0.1 mm 2 mps 606 mmHg 61%
    19:00 +19°C° 0.1 mm 2 mps 605 mmHg 71%
    20:00 +17°C° 0.2 mm 2 mps 604 mmHg 78%
    21:00 +15°C° 0.2 mm 1 mps 603 mmHg 84%
    22:00 +13°C° 0.2 mm 1 mps 603 mmHg 91%
    23:00 +12°C° 0 mm 1 mps 603 mmHg 92%

    28 June, Friday

    Time Temperature Precipitation Wind Pressure Humidity
    00:00 +12°C° 0 mm 1 mps 602 mmHg 93%
    01:00 +11°C° 0 mm 1 mps 602 mmHg 95%
    02:00 +11°C° 0 mm 1 mps 602 mmHg 95%
    03:00 +11°C° 0 mm 1 mps 602 mmHg 95%
    04:00 +11°C° 0 mm 1 mps 601 mmHg 95%
    05:00 +12°C° 0 mm 1 mps 602 mmHg 93%
    06:00 +14°C° 0 mm 1 mps 603 mmHg 90%
    07:00 +15°C° 0 mm 1 mps 603 mmHg 88%
    08:00 +18°C° 0 mm 1 mps 604 mmHg 79%
    09:00 +18°C° 0 mm 2 mps 604 mmHg 69%
    10:00 +19°C° 0 mm 2 mps 605 mmHg 60%
    11:00 +20°C° 0 mm 2 mps 605 mmHg 54%
    12:00 +21°C° 0 mm 3 mps 605 mmHg 48%
    13:00 +22°C° 0 mm 3 mps 605 mmHg 43%
    14:00 +22°C° 0 mm 3 mps 605 mmHg 42%
    15:00 +22°C° 0 mm 3 mps 605 mmHg 41%
    16:00 +21°C° 0 mm 3 mps 605 mmHg 41%
    17:00 +20°C° 0 mm 3 mps 604 mmHg 49%
    18:00 +18°C° 0 mm 2 mps 604 mmHg 56%
    19:00 +16°C° 0 mm 2 mps 603 mmHg 64%
    20:00 +14°C° 0 mm 2 mps 602 mmHg 72%
    21:00 +12°C° 0 mm 1 mps 601 mmHg 79%
    22:00 +9°C° 0 mm 1 mps 601 mmHg 86%
    23:00 +9°C° 0 mm 1 mps 600 mmHg 86%

    29 June, Saturday

    Time Temperature Precipitation Wind Pressure Humidity
    00:00 +9°C° 0 mm 1 mps 600 mmHg 86%
    01:00 +8°C° 0 mm 1 mps 600 mmHg 86%
    02:00 +8°C° 0 mm 1 mps 600 mmHg 85%
    03:00 +7°C° 0 mm 0 mps 599 mmHg 84%
    04:00 +7°C° 0 mm 0 mps 599 mmHg 83%
    05:00 +9°C° 0 mm 0 mps 600 mmHg 74%
    06:00 +12°C° 0 mm 0 mps 601 mmHg 65%
    07:00 +14°C° 0 mm 0 mps 603 mmHg 56%
    08:00 +18°C° 0 mm 1 mps 603 mmHg 49%
    09:00 +20°C° 0 mm 1 mps 604 mmHg 42%
    10:00 +21°C° 0 mm 2 mps 605 mmHg 35%
    11:00 +23°C° 0 mm 2 mps 605 mmHg 33%
    12:00 +24°C° 0 mm 2 mps 605 mmHg 30%
    13:00 +25°C° 0 mm 2 mps 605 mmHg 27%
    14:00 +25°C° 0 mm 2 mps 605 mmHg 28%
    15:00 +25°C° 0 mm 2 mps 605 mmHg 30%
    16:00 +24°C° 0 mm 2 mps 605 mmHg 31%
    17:00 +23°C° 0 mm 2 mps 604 mmHg 42%
    18:00 +21°C° 0 mm 1 mps 604 mmHg 53%
    19:00 +19°C° 0 mm 1 mps 603 mmHg 63%
    20:00 +16°C° 0 mm 1 mps 602 mmHg 69%
    21:00 +14°C° 0 mm 1 mps 602 mmHg 74%
    22:00 +12°C° 0 mm 1 mps 601 mmHg 80%
    23:00 +12°C° 0 mm 1 mps 601 mmHg 81%

    30 June, Sunday

    Time Temperature Precipitation Wind Pressure Humidity
    00:00 +12°C° 0 mm 1 mps 601 mmHg 82%
    01:00 +12°C° 0 mm 1 mps 601 mmHg 83%
    02:00 +11°C° 0 mm 1 mps 600 mmHg 83%
    03:00 +11°C° 0 mm 1 mps 600 mmHg 83%
    04:00 +10°C° 0 mm 1 mps 600 mmHg 83%
    05:00 +13°C° 0 mm 1 mps 601 mmHg 76%
    06:00 +15°C° 0 mm 1 mps 602 mmHg 69%
    07:00 +16°C° 0 mm 0 mps 603 mmHg 63%
    08:00 +20°C° 0 mm 1 mps 604 mmHg 52%
    09:00 +22°C° 0 mm 1 mps 605 mmHg 42%
    10:00 +25°C° 0 mm 1 mps 606 mmHg 32%
    11:00 +25°C° 0 mm 2 mps 606 mmHg 29%
    12:00 +26°C° 0 mm 2 mps 606 mmHg 27%
    13:00 +27°C° 0 mm 2 mps 606 mmHg 24%
    14:00 +27°C° 0 mm 2 mps 606 mmHg 25%
    15:00 +26°C° 0 mm 2 mps 606 mmHg 26%
    16:00 +26°C° 0 mm 3 mps 606 mmHg 27%
    17:00 +24°C° 0 mm 2 mps 605 mmHg 37%
    18:00 +23°C° 0 mm 2 mps 604 mmHg 46%
    19:00 +21°C° 0 mm 1 mps 604 mmHg 56%
    20:00 +18°C° 0 mm 1 mps 603 mmHg 60%
    21:00 +15°C° 0 mm 1 mps 602 mmHg 65%
    22:00 +13°C° 0 mm 1 mps 601 mmHg 70%
    23:00 +13°C° 0 mm 1 mps 601 mmHg 69%
    Show more